| time (UTC) | temp C | wind direction | speed KPH | gust KPH | rain 1hr cm | rain 24hr cm | rain mn cm | humidity % | barometer mb |
| 20260831192306 | 22 | 41 | 4.8 | 12.9 | 0.00 | 0.00 | 0.00 | 57 | 1009.4 |
| 20260831192028 | 22 | 49 | 3.2 | 11.3 | 0.00 | 0.00 | 0.00 | 58 | 1009.5 |
| 20260831191303 | 22 | 59 | 4.8 | 11.3 | 0.00 | 0.00 | 0.00 | 58 | 1009.6 |
| 20260831190758 | 22 | 22 | 4.8 | 14.5 | 0.00 | 0.00 | 0.00 | 60 | 1009.7 |
| 20260831190300 | 22 | 317 | 4.8 | 14.5 | 0.00 | 0.00 | 0.00 | 57 | 1009.7 |
| 20260831185754 | 21 | 359 | 3.2 | 12.9 | 0.00 | 0.00 | 0.00 | 63 | 1009.7 |
| 20260831185253 | 21 | 286 | 3.2 | 12.9 | 0.00 | 0.00 | 0.00 | 60 | 1009.9 |
| 20260831184751 | 21 | 349 | 3.2 | 11.3 | 0.00 | 0.00 | 0.00 | 63 | 1009.8 |
| 20260831184516 | 21 | 56 | 4.8 | 12.9 | 0.00 | 0.00 | 0.00 | 64 | 1009.9 |
| 20260831184011 | 21 | 20 | 6.4 | 14.5 | 0.00 | 0.00 | 0.00 | 64 | 1009.9 |
| 20260831183252 | 21 | 320 | 3.2 | 14.5 | 0.00 | 0.00 | 0.00 | 65 | 1009.9 |
| 20260831183013 | 20 | 237 | 3.2 | 14.5 | 0.00 | 0.00 | 0.00 | 63 | 1010.0 |
| 20260831182251 | 21 | 333 | 4.8 | 14.5 | 0.00 | 0.00 | 0.00 | 66 | 1010.0 |
| 20260831182013 | 20 | 16 | 6.4 | 14.5 | 0.00 | 0.00 | 0.00 | 66 | 1010.0 |
| 20260831181251 | 20 | 53 | 6.4 | 14.5 | 0.00 | 0.00 | 0.00 | 65 | 1009.9 |
| 20260831181026 | 20 | 359 | 4.8 | 14.5 | 0.00 | 0.00 | 0.00 | 68 | 1010.0 |
| 20260831180254 | 20 | 28 | 4.8 | 11.3 | 0.00 | 0.00 | 0.00 | 65 | 1010.1 |
| 20260831175744 | 20 | 12 | 4.8 | 12.9 | 0.00 | 0.00 | 0.00 | 66 | 1010.2 |
| 20260831175243 | 19 | 332 | 6.4 | 12.9 | 0.00 | 0.00 | 0.00 | 67 | 1010.2 |
| 20260831174743 | 19 | 52 | 4.8 | 12.9 | 0.00 | 0.00 | 0.00 | 70 | 1010.3 |
| 20260831174243 | 18 | 37 | 4.8 | 12.9 | 0.00 | 0.00 | 0.00 | 67 | 1010.3 |
| 20260831174007 | 19 | 0 | 4.8 | 12.9 | 0.00 | 0.00 | 0.00 | 66 | 1010.3 |
| 20260831173504 | 19 | 308 | 4.8 | 14.5 | 0.00 | 0.00 | 0.00 | 69 | 1010.2 |
| 20260831172734 | 19 | 332 | 4.8 | 14.5 | 0.00 | 0.00 | 0.00 | 69 | 1010.3 |
| 20260831172450 | 19 | 335 | 3.2 | 9.7 | 0.00 | 0.00 | 0.00 | 69 | 1010.3 |
| 20260831171729 | 18 | 37 | 4.8 | 11.3 | 0.00 | 0.00 | 0.00 | 70 | 1010.3 |
| 20260831171230 | 18 | 74 | 3.2 | 11.3 | 0.00 | 0.00 | 0.00 | 70 | 1010.4 |
| 20260831170723 | 18 | 349 | 4.8 | 12.9 | 0.00 | 0.00 | 0.00 | 72 | 1010.4 |
| 20260831170223 | 18 | 308 | 6.4 | 12.9 | 0.00 | 0.00 | 0.00 | 70 | 1010.3 |
| 20260831165717 | 18 | 304 | 4.8 | 12.9 | 0.00 | 0.00 | 0.00 | 71 | 1010.5 |
| 20260831165214 | 18 | 357 | 4.8 | 11.3 | 0.00 | 0.00 | 0.00 | 72 | 1010.5 |
| 20260831164710 | 17 | 344 | 3.2 | 8.0 | 0.00 | 0.00 | 0.00 | 71 | 1010.5 |
| 20260831164206 | 17 | 330 | 4.8 | 9.7 | 0.00 | 0.00 | 0.00 | 71 | 1010.4 |
| 20260831163704 | 17 | 59 | 4.8 | 9.7 | 0.00 | 0.00 | 0.00 | 72 | 1010.5 |
| 20260831163205 | 17 | 76 | 4.8 | 9.7 | 0.00 | 0.00 | 0.00 | 73 | 1010.5 |
| 20260831162704 | 17 | 18 | 3.2 | 9.7 | 0.00 | 0.00 | 0.00 | 74 | 1010.5 |
| 20260831162205 | 16 | 354 | 1.6 | 8.0 | 0.00 | 0.00 | 0.00 | 78 | 1010.7 |
| 20260831161700 | 16 | 29 | 1.6 | 4.8 | 0.00 | 0.00 | 0.00 | 77 | 1010.7 |
| 20260831161154 | 16 | 35 | 1.6 | 4.8 | 0.00 | 0.00 | 0.00 | 78 | 1010.8 |
| 20260831160912 | 15 | 342 | 1.6 | 4.8 | 0.00 | 0.00 | 0.00 | 79 | 1010.9 |
| 20260831160151 | 15 | 79 | 0.0 | 4.8 | 0.00 | 0.00 | 0.00 | 80 | 1011.0 |
| 20260831155649 | 15 | 127 | 0.0 | 3.2 | 0.00 | 0.00 | 0.00 | 82 | 1011.1 |
| 20260831155145 | 14 | 127 | 0.0 | 3.2 | 0.00 | 0.00 | 0.00 | 81 | 1011.1 |
| 20260831154913 | 14 | 127 | 0.0 | 1.6 | 0.00 | 0.00 | 0.00 | 81 | 1011.1 |
| 20260831154136 | 13 | 127 | 0.0 | 1.6 | 0.00 | 0.00 | 0.00 | 81 | 1011.1 |
| 20260831153839 | 13 | 127 | 0.0 | 1.6 | 0.00 | 0.00 | 0.00 | 83 | 1011.1 |
| 20260831153106 | 13 | 127 | 0.0 | 1.6 | 0.00 | 0.00 | 0.00 | 84 | 1011.1 |
| 20260831152603 | 12 | 127 | 0.0 | 1.6 | 0.00 | 0.00 | 0.00 | 83 | 1011.2 |
| 20260831152105 | 12 | 127 | 0.0 | 0.0 | 0.00 | 0.00 | 0.00 | 84 | 1011.1 |
| 20260831151603 | 12 | 127 | 0.0 | 0.0 | 0.00 | 0.00 | 0.00 | 85 | 1011.0 |
| 20260831151059 | 11 | 127 | 0.0 | 1.6 | 0.00 | 0.00 | 0.00 | 87 | 1011.0 |
| 20260831150538 | 11 | 127 | 0.0 | 1.6 | 0.00 | 0.00 | 0.00 | 86 | 1011.0 |
| 20260831150037 | 11 | 127 | 0.0 | 1.6 | 0.00 | 0.00 | 0.00 | 87 | 1010.8 |
| 20260831145530 | 11 | 127 | 0.0 | 0.0 | 0.00 | 0.00 | 0.00 | 89 | 1010.7 |
| 20260831145028 | 10 | 127 | 0.0 | 0.0 | 0.00 | 0.00 | 0.00 | 90 | 1010.9 |
| 20260831144525 | 10 | 127 | 0.0 | 0.0 | 0.00 | 0.00 | 0.00 | 90 | 1010.8 |
| 20260831144022 | 10 | 127 | 0.0 | 0.0 | 0.00 | 0.00 | 0.00 | 91 | 1010.8 |
| 20260831143505 | 10 | 127 | 0.0 | 0.0 | 0.00 | 0.00 | 0.00 | 91 | 1010.8 |
| 20260831143006 | 10 | 127 | 0.0 | 0.0 | 0.00 | 0.00 | 0.00 | 92 | 1010.9 |
| 20260831142505 | 9 | 127 | 0.0 | 0.0 | 0.00 | 0.00 | 0.00 | 91 | 1010.8 |
| 20260831141959 | 9 | 127 | 0.0 | 0.0 | 0.00 | 0.00 | 0.00 | 91 | 1010.9 |
| 20260831141447 | 9 | 127 | 0.0 | 0.0 | 0.00 | 0.00 | 0.00 | 91 | 1010.8 |
| 20260831140928 | 9 | 127 | 0.0 | 0.0 | 0.00 | 0.00 | 0.00 | 91 | 1010.8 |
| 20260831140416 | 9 | 127 | 0.0 | 0.0 | 0.00 | 0.00 | 0.00 | 90 | 1010.8 |
| 20260831135906 | 9 | 127 | 0.0 | 1.6 | 0.00 | 0.00 | 0.00 | 89 | 1010.9 |
| 20260831135405 | 10 | 127 | 0.0 | 1.6 | 0.00 | 0.00 | 0.00 | 90 | 1010.8 |
| 20260831134901 | 10 | 127 | 1.6 | 4.8 | 0.00 | 0.00 | 0.00 | 90 | 1010.8 |
| 20260831134356 | 10 | 127 | 1.6 | 4.8 | 0.00 | 0.00 | 0.00 | 90 | 1010.8 |
| 20260831133854 | 10 | 31 | 1.6 | 4.8 | 0.00 | 0.00 | 0.00 | 91 | 1010.7 |
| 20260831133343 | 9 | 180 | 1.6 | 3.2 | 0.00 | 0.00 | 0.00 | 91 | 1010.6 |
| 20260831132836 | 9 | 180 | 1.6 | 3.2 | 0.00 | 0.00 | 0.00 | 91 | 1010.6 |
| 20260831132331 | 9 | 180 | 0.0 | 3.2 | 0.00 | 0.00 | 0.00 | 91 | 1010.6 |
| 20260831131831 | 9 | 180 | 1.6 | 3.2 | 0.00 | 0.00 | 0.00 | 91 | 1010.5 |
| 20260831131330 | 9 | 180 | 1.6 | 3.2 | 0.00 | 0.00 | 0.00 | 91 | 1010.6 |
| 20260831130828 | 9 | 180 | 1.6 | 3.2 | 0.00 | 0.00 | 0.00 | 91 | 1010.7 |
| 20260831130325 | 9 | 180 | 0.0 | 3.2 | 0.00 | 0.00 | 0.00 | 91 | 1010.7 |
| 20260831125824 | 9 | 180 | 0.0 | 3.2 | 0.00 | 0.00 | 0.00 | 91 | 1010.8 |
| 20260831125326 | 9 | 180 | 0.0 | 1.6 | 0.00 | 0.00 | 0.00 | 91 | 1010.8 |
| 20260831124819 | 9 | 180 | 0.0 | 1.6 | 0.00 | 0.00 | 0.00 | 91 | 1010.8 |
| 20260831124310 | 10 | 180 | 0.0 | 1.6 | 0.00 | 0.00 | 0.00 | 91 | 1010.9 |
| 20260831123804 | 10 | 180 | 1.6 | 3.2 | 0.00 | 0.00 | 0.00 | 91 | 1010.9 |
| 20260831123304 | 10 | 180 | 1.6 | 4.8 | 0.00 | 0.00 | 0.00 | 90 | 1011.0 |
| 20260831122805 | 10 | 180 | 1.6 | 4.8 | 0.00 | 0.00 | 0.00 | 90 | 1011.0 |
| 20260831122251 | 10 | 180 | 1.6 | 3.2 | 0.00 | 0.00 | 0.00 | 90 | 1011.0 |
| 20260831121751 | 10 | 180 | 1.6 | 3.2 | 0.00 | 0.00 | 0.00 | 89 | 1011.1 |
| 20260831121250 | 10 | 180 | 1.6 | 3.2 | 0.00 | 0.00 | 0.00 | 89 | 1011.1 |
| 20260831121242 | 10 | 180 | 1.6 | 3.2 | 0.00 | 0.00 | 0.00 | 89 | 1011.1 |
| 20260831120246 | 10 | 180 | 1.6 | 3.2 | 0.00 | 0.00 | 0.00 | 89 | 1011.1 |
| 20260831115744 | 10 | 180 | 1.6 | 3.2 | 0.00 | 0.00 | 0.00 | 89 | 1011.1 |
| 20260831115246 | 10 | 180 | 1.6 | 3.2 | 0.00 | 0.00 | 0.00 | 89 | 1011.1 |
| 20260831114744 | 10 | 180 | 1.6 | 3.2 | 0.00 | 0.00 | 0.00 | 89 | 1011.1 |
| 20260831114238 | 10 | 180 | 1.6 | 4.8 | 0.00 | 0.00 | 0.00 | 89 | 1011.0 |
| 20260831113958 | 10 | 180 | 1.6 | 4.8 | 0.00 | 0.00 | 0.00 | 89 | 1011.0 |
| 20260831113223 | 10 | 180 | 0.0 | 3.2 | 0.00 | 0.00 | 0.00 | 89 | 1011.2 |
| 20260831112716 | 10 | 180 | 0.0 | 0.0 | 0.00 | 0.00 | 0.00 | 90 | 1011.1 |
| 20260831112208 | 10 | 180 | 0.0 | 0.0 | 0.00 | 0.00 | 0.00 | 90 | 1011.2 |
| 20260831111659 | 10 | 180 | 0.0 | 0.0 | 0.00 | 0.00 | 0.00 | 91 | 1011.1 |
| 20260831111143 | 10 | 180 | 0.0 | 0.0 | 0.00 | 0.00 | 0.00 | 90 | 1011.1 |
| 20260831110631 | 10 | 180 | 0.0 | 1.6 | 0.00 | 0.00 | 0.00 | 90 | 1011.1 |
| 20260831110124 | 10 | 180 | 0.0 | 1.6 | 0.00 | 0.00 | 0.00 | 89 | 1011.1 |
| 20260831105827 | 10 | 180 | 0.0 | 1.6 | 0.00 | 0.00 | 0.00 | 87 | 1011.1 |
| 20260831105100 | 10 | 180 | 0.0 | 0.0 | 0.00 | 0.00 | 0.00 | 86 | 1011.2 |
| 20260831104808 | 11 | 180 | 0.0 | 1.6 | 0.00 | 0.00 | 0.00 | 86 | 1011.2 |
| 20260831104031 | 11 | 180 | 0.0 | 1.6 | 0.00 | 0.00 | 0.00 | 86 | 1011.1 |
| 20260831103754 | 11 | 180 | 0.0 | 3.2 | 0.00 | 0.00 | 0.00 | 86 | 1011.3 |
| 20260831103253 | 11 | 180 | 1.6 | 3.2 | 0.00 | 0.00 | 0.00 | 85 | 1011.2 |
| 20260831102530 | 11 | 180 | 1.6 | 3.2 | 0.00 | 0.00 | 0.00 | 85 | 1011.3 |
| 20260831102028 | 11 | 180 | 1.6 | 3.2 | 0.00 | 0.00 | 0.00 | 85 | 1011.4 |
| 20260831101745 | 11 | 180 | 1.6 | 3.2 | 0.00 | 0.00 | 0.00 | 85 | 1011.3 |
| 20260831101242 | 11 | 180 | 1.6 | 3.2 | 0.00 | 0.00 | 0.00 | 85 | 1011.4 |
| 20260831100516 | 11 | 180 | 3.2 | 4.8 | 0.00 | 0.00 | 0.00 | 84 | 1011.4 |
| 20260831100244 | 11 | 180 | 1.6 | 4.8 | 0.00 | 0.00 | 0.00 | 84 | 1011.5 |
| 20260831095516 | 11 | 267 | 0.0 | 3.2 | 0.00 | 0.00 | 0.00 | 85 | 1011.5 |
| 20260831095007 | 11 | 267 | 0.0 | 0.0 | 0.00 | 0.00 | 0.00 | 84 | 1011.5 |
| 20260831094702 | 11 | 267 | 0.0 | 0.0 | 0.00 | 0.00 | 0.00 | 84 | 1011.7 |
| 20260831094547 | 11 | 267 | 0.0 | 0.0 | 0.00 | 0.00 | 0.00 | 84 | 1011.6 |
| 20260831093456 | 11 | 267 | 0.0 | 0.0 | 0.00 | 0.00 | 0.00 | 83 | 1011.8 |
| 20260831092954 | 11 | 267 | 0.0 | 3.2 | 0.00 | 0.00 | 0.00 | 83 | 1011.8 |
| 20260831092455 | 11 | 267 | 1.6 | 3.2 | 0.00 | 0.00 | 0.00 | 84 | 1011.7 |
| 20260831092212 | 11 | 267 | 1.6 | 4.8 | 0.00 | 0.00 | 0.00 | 83 | 1011.7 |
| 20260831091446 | 11 | 267 | 1.6 | 4.8 | 0.00 | 0.00 | 0.00 | 82 | 1011.7 |
| 20260831090935 | 11 | 267 | 1.6 | 3.2 | 0.00 | 0.00 | 0.00 | 82 | 1011.8 |
| 20260831090430 | 11 | 267 | 0.0 | 3.2 | 0.00 | 0.00 | 0.00 | 81 | 1011.9 |
| 20260831085929 | 12 | 267 | 0.0 | 3.2 | 0.00 | 0.00 | 0.00 | 82 | 1011.9 |
| 20260831085423 | 12 | 267 | 0.0 | 3.2 | 0.00 | 0.00 | 0.00 | 81 | 1011.9 |
| 20260831084919 | 12 | 267 | 1.6 | 3.2 | 0.00 | 0.00 | 0.00 | 81 | 1012.0 |
| 20260831084859 | 12 | 267 | 1.6 | 3.2 | 0.00 | 0.00 | 0.00 | 82 | 1012.0 |
| 20260831083902 | 12 | 267 | 1.6 | 4.8 | 0.00 | 0.00 | 0.00 | 82 | 1012.1 |
| 20260831083358 | 12 | 267 | 1.6 | 4.8 | 0.00 | 0.00 | 0.00 | 83 | 1012.1 |
| 20260831083133 | 12 | 267 | 3.2 | 4.8 | 0.00 | 0.00 | 0.00 | 82 | 1012.1 |
| 20260831082357 | 12 | 267 | 1.6 | 4.8 | 0.00 | 0.00 | 0.00 | 81 | 1012.1 |
| 20260831081851 | 12 | 28 | 0.0 | 3.2 | 0.00 | 0.00 | 0.00 | 81 | 1012.2 |
| 20260831081348 | 12 | 27 | 0.0 | 1.6 | 0.00 | 0.00 | 0.00 | 81 | 1012.2 |
| 20260831080850 | 12 | 27 | 0.0 | 1.6 | 0.00 | 0.00 | 0.00 | 81 | 1012.1 |
| 20260831080349 | 12 | 27 | 0.0 | 4.8 | 0.00 | 0.00 | 0.00 | 80 | 1012.2 |
| 20260831075850 | 13 | 27 | 1.6 | 4.8 | 0.00 | 0.00 | 0.00 | 79 | 1012.3 |
| 20260831075328 | 13 | 27 | 0.0 | 3.2 | 0.00 | 0.00 | 0.00 | 78 | 1012.4 |
| 20260831074832 | 13 | 27 | 0.0 | 3.2 | 0.00 | 0.00 | 0.00 | 78 | 1012.4 |
| 20260831074330 | 13 | 27 | 0.0 | 1.6 | 0.00 | 0.00 | 0.00 | 78 | 1012.3 |
| 20260831073826 | 13 | 27 | 0.0 | 1.6 | 0.00 | 0.00 | 0.00 | 78 | 1012.4 |
| 20260831073318 | 13 | 27 | 0.0 | 1.6 | 0.00 | 0.00 | 0.00 | 78 | 1012.5 |
| 20260831072800 | 13 | 27 | 0.0 | 3.2 | 0.00 | 0.00 | 0.00 | 77 | 1012.6 |
| 20260831072526 | 13 | 27 | 0.0 | 6.4 | 0.00 | 0.00 | 0.00 | 76 | 1012.7 |
| 20260831071801 | 14 | 27 | 1.6 | 6.4 | 0.00 | 0.00 | 0.00 | 75 | 1012.6 |
| 20260831071300 | 13 | 18 | 1.6 | 4.8 | 0.00 | 0.00 | 0.00 | 75 | 1012.7 |
| 20260831070748 | 13 | 18 | 3.2 | 6.4 | 0.00 | 0.00 | 0.00 | 75 | 1012.6 |
| 20260831070247 | 13 | 10 | 1.6 | 6.4 | 0.00 | 0.00 | 0.00 | 76 | 1012.6 |
| 20260831065745 | 13 | 13 | 1.6 | 4.8 | 0.00 | 0.00 | 0.00 | 76 | 1012.7 |
| 20260831065232 | 13 | 241 | 1.6 | 3.2 | 0.00 | 0.00 | 0.00 | 76 | 1012.7 |
| 20260831064722 | 13 | 241 | 3.2 | 4.8 | 0.00 | 0.00 | 0.00 | 76 | 1012.8 |
| 20260831064211 | 13 | 241 | 3.2 | 4.8 | 0.00 | 0.00 | 0.00 | 76 | 1012.8 |
| 20260831063711 | 13 | 241 | 1.6 | 4.8 | 0.00 | 0.00 | 0.00 | 75 | 1012.8 |
| 20260831063211 | 14 | 351 | 0.0 | 4.8 | 0.00 | 0.00 | 0.00 | 74 | 1012.8 |
| 20260831062712 | 14 | 351 | 0.0 | 1.6 | 0.00 | 0.00 | 0.00 | 73 | 1012.8 |
| 20260831062413 | 14 | 351 | 1.6 | 4.8 | 0.00 | 0.00 | 0.00 | 73 | 1012.8 |
| 20260831061652 | 14 | 351 | 3.2 | 6.4 | 0.00 | 0.00 | 0.00 | 73 | 1012.8 |
| 20260831061150 | 14 | 351 | 3.2 | 6.4 | 0.00 | 0.00 | 0.00 | 72 | 1012.8 |
| 20260831060648 | 14 | 331 | 1.6 | 4.8 | 0.00 | 0.00 | 0.00 | 74 | 1012.8 |
| 20260831060141 | 14 | 357 | 0.0 | 3.2 | 0.00 | 0.00 | 0.00 | 72 | 1012.9 |
| 20260831055630 | 15 | 357 | 0.0 | 3.2 | 0.00 | 0.00 | 0.00 | 71 | 1013.0 |
| 20260831055112 | 15 | 357 | 0.0 | 4.8 | 0.00 | 0.00 | 0.00 | 70 | 1012.9 |
| 20260831054615 | 15 | 357 | 0.0 | 4.8 | 0.00 | 0.00 | 0.00 | 69 | 1013.0 |
| 20260831054058 | 15 | 357 | 1.6 | 6.4 | 0.00 | 0.00 | 0.00 | 68 | 1013.0 |
| 20260831053811 | 16 | 357 | 3.2 | 6.4 | 0.00 | 0.00 | 0.00 | 68 | 1012.9 |
| 20260831053051 | 16 | 339 | 3.2 | 8.0 | 0.00 | 0.00 | 0.00 | 67 | 1013.1 |
| 20260831052811 | 16 | 345 | 3.2 | 8.0 | 0.00 | 0.00 | 0.00 | 67 | 1013.1 |
| 20260831052315 | 16 | 333 | 1.6 | 4.8 | 0.00 | 0.00 | 0.00 | 66 | 1013.2 |
| 20260831051545 | 16 | 337 | 3.2 | 6.4 | 0.00 | 0.00 | 0.00 | 65 | 1013.2 |
| 20260831051036 | 17 | 334 | 4.8 | 12.9 | 0.00 | 0.00 | 0.00 | 65 | 1013.3 |
| 20260831050805 | 17 | 15 | 6.4 | 12.9 | 0.00 | 0.00 | 0.00 | 64 | 1013.3 |
| 20260831050035 | 17 | 12 | 6.4 | 11.3 | 0.00 | 0.00 | 0.00 | 64 | 1013.3 |
| 20260831045531 | 17 | 357 | 4.8 | 9.7 | 0.00 | 0.00 | 0.00 | 63 | 1013.5 |
| 20260831045034 | 17 | 8 | 4.8 | 9.7 | 0.00 | 0.00 | 0.00 | 62 | 1013.4 |
| 20260831044533 | 18 | 25 | 6.4 | 11.3 | 0.00 | 0.00 | 0.00 | 61 | 1013.4 |
| 20260831044033 | 18 | 348 | 6.4 | 16.1 | 0.00 | 0.00 | 0.00 | 60 | 1013.4 |
| 20260831043532 | 18 | 0 | 8.0 | 16.1 | 0.00 | 0.00 | 0.00 | 59 | 1013.4 |
| 20260831043033 | 18 | 35 | 8.0 | 14.5 | 0.00 | 0.00 | 0.00 | 59 | 1013.4 |
| 20260831042532 | 18 | 35 | 8.0 | 17.7 | 0.00 | 0.00 | 0.00 | 59 | 1013.3 |
| 20260831042032 | 19 | 32 | 8.0 | 17.7 | 0.00 | 0.00 | 0.00 | 58 | 1013.3 |
| 20260831041822 | 19 | 1 | 9.7 | 17.7 | 0.00 | 0.00 | 0.00 | 57 | 1013.2 |
| 20260831041739 | 19 | 4 | 8.0 | 17.7 | 0.00 | 0.00 | 0.00 | 57 | 1013.3 |
| 20260831040529 | 19 | 30 | 11.3 | 22.5 | 0.00 | 0.00 | 0.00 | 56 | 1013.2 |
| 20260831040031 | 20 | 14 | 11.3 | 24.1 | 0.00 | 0.00 | 0.00 | 56 | 1013.1 |
| 20260831035534 | 20 | 18 | 11.3 | 24.1 | 0.00 | 0.00 | 0.00 | 56 | 1013.1 |
| 20260831035030 | 20 | 31 | 8.0 | 19.3 | 0.00 | 0.00 | 0.00 | 56 | 1013.1 |
| 20260831034524 | 20 | 26 | 8.0 | 17.7 | 0.00 | 0.00 | 0.00 | 56 | 1013.1 |
| 20260831034025 | 20 | 22 | 9.7 | 19.3 | 0.00 | 0.00 | 0.00 | 55 | 1013.1 |
| 20260831033747 | 20 | 58 | 8.0 | 19.3 | 0.00 | 0.00 | 0.00 | 55 | 1013.2 |
| 20260831033023 | 20 | 24 | 6.4 | 14.5 | 0.00 | 0.00 | 0.00 | 55 | 1013.1 |
| 20260831032522 | 20 | 16 | 8.0 | 14.5 | 0.00 | 0.00 | 0.00 | 55 | 1013.1 |
| 20260831032019 | 20 | 25 | 8.0 | 16.1 | 0.00 | 0.00 | 0.00 | 54 | 1013.0 |
| 20260831031956 | 20 | 6 | 8.0 | 20.9 | 0.00 | 0.00 | 0.00 | 54 | 1013.1 |
| 20260831031012 | 20 | 13 | 8.0 | 20.9 | 0.00 | 0.00 | 0.00 | 54 | 1013.2 |
| 20260831030512 | 21 | 30 | 8.0 | 17.7 | 0.00 | 0.00 | 0.00 | 54 | 1013.1 |
| 20260831030009 | 21 | 22 | 8.0 | 17.7 | 0.00 | 0.00 | 0.00 | 53 | 1013.2 |
| 20260831025507 | 21 | 39 | 8.0 | 17.7 | 0.00 | 0.00 | 0.00 | 52 | 1013.1 |
| 20260831025005 | 21 | 22 | 8.0 | 17.7 | 0.00 | 0.00 | 0.00 | 52 | 1013.1 |
| 20260831024504 | 21 | 45 | 8.0 | 17.7 | 0.00 | 0.00 | 0.00 | 51 | 1013.2 |
| 20260831024222 | 21 | 43 | 9.7 | 17.7 | 0.00 | 0.00 | 0.00 | 51 | 1013.2 |
| 20260831023455 | 21 | 45 | 9.7 | 17.7 | 0.00 | 0.00 | 0.00 | 50 | 1013.2 |
| 20260831022953 | 22 | 16 | 11.3 | 20.9 | 0.00 | 0.00 | 0.00 | 49 | 1013.2 |
| 20260831022454 | 22 | 36 | 11.3 | 20.9 | 0.00 | 0.00 | 0.00 | 47 | 1013.1 |
| 20260831021953 | 22 | 5 | 12.9 | 24.1 | 0.00 | 0.00 | 0.00 | 47 | 1013.1 |
| 20260831021452 | 22 | 20 | 12.9 | 24.1 | 0.00 | 0.00 | 0.00 | 46 | 1013.2 |
| 20260831021208 | 22 | 16 | 11.3 | 20.9 | 0.00 | 0.00 | 0.00 | 46 | 1013.2 |
| 20260831020449 | 22 | 6 | 12.9 | 22.5 | 0.00 | 0.00 | 0.00 | 46 | 1013.2 |
| 20260831015949 | 22 | 27 | 12.9 | 25.7 | 0.00 | 0.00 | 0.00 | 45 | 1013.3 |
| 20260831015710 | 22 | 353 | 12.9 | 25.7 | 0.00 | 0.00 | 0.00 | 44 | 1013.2 |
| 20260831014947 | 23 | 12 | 12.9 | 20.9 | 0.00 | 0.00 | 0.00 | 42 | 1013.3 |
| 20260831014450 | 23 | 324 | 12.9 | 27.4 | 0.00 | 0.00 | 0.00 | 42 | 1013.3 |
| 20260831013948 | 23 | 333 | 14.5 | 27.4 | 0.00 | 0.00 | 0.00 | 40 | 1013.3 |
| 20260831013445 | 23 | 9 | 14.5 | 25.7 | 0.00 | 0.00 | 0.00 | 39 | 1013.3 |
| 20260831012945 | 23 | 10 | 14.5 | 25.7 | 0.00 | 0.00 | 0.00 | 38 | 1013.3 |
| 20260831012445 | 23 | 50 | 14.5 | 25.7 | 0.00 | 0.00 | 0.00 | 38 | 1013.3 |
| 20260831011941 | 23 | 347 | 14.5 | 25.7 | 0.00 | 0.00 | 0.00 | 37 | 1013.4 |
| 20260831011702 | 23 | 352 | 14.5 | 27.4 | 0.00 | 0.00 | 0.00 | 36 | 1013.4 |
| 20260831010942 | 23 | 2 | 14.5 | 27.4 | 0.00 | 0.00 | 0.00 | 36 | 1013.4 |
| 20260831010442 | 24 | 18 | 12.9 | 25.7 | 0.00 | 0.00 | 0.00 | 36 | 1013.5 |
| 20260831005941 | 24 | 356 | 12.9 | 32.2 | 0.00 | 0.00 | 0.00 | 35 | 1013.5 |
| 20260831005441 | 24 | 52 | 12.9 | 32.2 | 0.00 | 0.00 | 0.00 | 36 | 1013.4 |
| 20260831004943 | 24 | 10 | 12.9 | 24.1 | 0.00 | 0.00 | 0.00 | 36 | 1013.5 |
| 20260831004437 | 24 | 347 | 14.5 | 29.0 | 0.00 | 0.00 | 0.00 | 35 | 1013.8 |
| 20260831004420 | 24 | 0 | 14.5 | 29.0 | 0.00 | 0.00 | 0.00 | 35 | 1013.9 |
| 20260831003437 | 24 | 1 | 12.9 | 22.5 | 0.00 | 0.00 | 0.00 | 35 | 1014.0 |
| 20260831002939 | 24 | 38 | 14.5 | 24.1 | 0.00 | 0.00 | 0.00 | 36 | 1014.0 |
| 20260831002440 | 24 | 359 | 16.1 | 25.7 | 0.00 | 0.00 | 0.00 | 35 | 1014.1 |
| 20260831002203 | 25 | 63 | 12.9 | 25.7 | 0.00 | 0.00 | 0.00 | 36 | 1014.0 |
| 20260831001438 | 25 | 357 | 11.3 | 29.0 | 0.00 | 0.00 | 0.00 | 36 | 1014.0 |
| 20260831000937 | 25 | 30 | 12.9 | 29.0 | 0.00 | 0.00 | 0.00 | 36 | 1014.0 |
| 20260831000439 | 25 | 52 | 12.9 | 25.7 | 0.00 | 0.00 | 0.00 | 37 | 1014.0 |
| 20260830235939 | 25 | 69 | 14.5 | 25.7 | 0.00 | 0.00 | 0.00 | 36 | 1014.1 |
| 20260830235438 | 25 | 36 | 14.5 | 25.7 | 0.00 | 0.00 | 0.00 | 36 | 1014.1 |
| 20260830234930 | 25 | 16 | 14.5 | 25.7 | 0.00 | 0.00 | 0.00 | 38 | 1014.2 |
| 20260830234431 | 25 | 46 | 14.5 | 24.1 | 0.00 | 0.00 | 0.00 | 35 | 1014.2 |
| 20260830233930 | 25 | 75 | 16.1 | 29.0 | 0.00 | 0.00 | 0.00 | 34 | 1014.3 |
| 20260830233422 | 25 | 357 | 16.1 | 29.0 | 0.00 | 0.00 | 0.00 | 38 | 1014.3 |
| 20260830232920 | 25 | 3 | 14.5 | 27.4 | 0.00 | 0.00 | 0.00 | 38 | 1014.4 |
| 20260830232423 | 25 | 12 | 14.5 | 25.7 | 0.00 | 0.00 | 0.00 | 37 | 1014.7 |
| 20260830231917 | 25 | 0 | 14.5 | 24.1 | 0.00 | 0.00 | 0.00 | 38 | 1014.7 |
| 20260830231418 | 25 | 46 | 12.9 | 24.1 | 0.00 | 0.00 | 0.00 | 37 | 1014.9 |
| 20260830230911 | 25 | 12 | 14.5 | 25.7 | 0.00 | 0.00 | 0.00 | 38 | 1015.0 |
| 20260830230405 | 25 | 21 | 14.5 | 25.7 | 0.00 | 0.00 | 0.00 | 36 | 1015.2 |
| 20260830230349 | 25 | 352 | 14.5 | 24.1 | 0.00 | 0.00 | 0.00 | 38 | 1015.2 |
| 20260830225408 | 25 | 33 | 16.1 | 32.2 | 0.00 | 0.00 | 0.00 | 38 | 1015.2 |
| 20260830225126 | 25 | 9 | 16.1 | 32.2 | 0.00 | 0.00 | 0.00 | 38 | 1015.3 |
| 20260830224405 | 25 | 16 | 14.5 | 25.7 | 0.00 | 0.00 | 0.00 | 40 | 1015.4 |
| 20260830223902 | 25 | 12 | 14.5 | 27.4 | 0.00 | 0.00 | 0.00 | 40 | 1015.5 |
| 20260830223401 | 25 | 15 | 14.5 | 27.4 | 0.00 | 0.00 | 0.00 | 43 | 1015.6 |
| 20260830222900 | 25 | 10 | 14.5 | 25.7 | 0.00 | 0.00 | 0.00 | 43 | 1015.5 |
| 20260830222400 | 25 | 31 | 14.5 | 25.7 | 0.00 | 0.00 | 0.00 | 40 | 1015.7 |
| 20260830221901 | 25 | 15 | 11.3 | 25.7 | 0.00 | 0.00 | 0.00 | 40 | 1015.7 |
| 20260830221358 | 25 | 340 | 11.3 | 25.7 | 0.00 | 0.00 | 0.00 | 41 | 1015.8 |
| 20260830220857 | 25 | 25 | 12.9 | 25.7 | 0.00 | 0.00 | 0.00 | 39 | 1015.8 |
| 20260830220401 | 25 | 357 | 12.9 | 20.9 | 0.00 | 0.00 | 0.00 | 44 | 1015.8 |
| 20260830215859 | 25 | 10 | 14.5 | 24.1 | 0.00 | 0.00 | 0.00 | 40 | 1015.9 |
| 20260830215356 | 25 | 355 | 14.5 | 24.1 | 0.00 | 0.00 | 0.00 | 43 | 1016.0 |
| 20260830214856 | 25 | 332 | 14.5 | 24.1 | 0.00 | 0.00 | 0.00 | 40 | 1016.0 |
| 20260830214354 | 24 | 44 | 14.5 | 27.4 | 0.00 | 0.00 | 0.00 | 41 | 1016.0 |
| 20260830213853 | 24 | 31 | 12.9 | 27.4 | 0.00 | 0.00 | 0.00 | 41 | 1016.1 |
| 20260830213353 | 25 | 36 | 14.5 | 25.7 | 0.00 | 0.00 | 0.00 | 42 | 1016.2 |
| 20260830212851 | 24 | 28 | 16.1 | 25.7 | 0.00 | 0.00 | 0.00 | 43 | 1016.3 |
| 20260830212351 | 25 | 326 | 14.5 | 25.7 | 0.00 | 0.00 | 0.00 | 44 | 1016.4 |
| 20260830211850 | 24 | 9 | 12.9 | 25.7 | 0.00 | 0.00 | 0.00 | 46 | 1016.3 |
| 20260830211351 | 24 | 14 | 14.5 | 22.5 | 0.00 | 0.00 | 0.00 | 45 | 1016.4 |
| 20260830210852 | 24 | 29 | 14.5 | 27.4 | 0.00 | 0.00 | 0.00 | 44 | 1016.5 |
| 20260830210349 | 24 | 10 | 16.1 | 27.4 | 0.00 | 0.00 | 0.00 | 45 | 1016.5 |
| 20260830205848 | 24 | 353 | 14.5 | 25.7 | 0.00 | 0.00 | 0.00 | 45 | 1016.5 |
| 20260830205348 | 23 | 4 | 14.5 | 24.1 | 0.00 | 0.00 | 0.00 | 43 | 1016.7 |
| 20260830205115 | 23 | 4 | 16.1 | 27.4 | 0.00 | 0.00 | 0.00 | 46 | 1016.7 |
| 20260830204346 | 23 | 15 | 16.1 | 27.4 | 0.00 | 0.00 | 0.00 | 46 | 1016.8 |
| 20260830203844 | 23 | 326 | 14.5 | 27.4 | 0.00 | 0.00 | 0.00 | 44 | 1016.8 |
| 20260830203344 | 23 | 4 | 16.1 | 30.6 | 0.00 | 0.00 | 0.00 | 46 | 1016.7 |
| 20260830202844 | 23 | 337 | 14.5 | 30.6 | 0.00 | 0.00 | 0.00 | 45 | 1016.8 |
| 20260830202820 | 23 | 30 | 14.5 | 24.1 | 0.00 | 0.00 | 0.00 | 46 | 1017.0 |
| 20260830201841 | 23 | 11 | 12.9 | 24.1 | 0.00 | 0.00 | 0.00 | 45 | 1017.0 |
| 20260830201607 | 23 | 31 | 12.9 | 20.9 | 0.00 | 0.00 | 0.00 | 47 | 1017.1 |
| 20260830200841 | 23 | 14 | 12.9 | 24.1 | 0.00 | 0.00 | 0.00 | 47 | 1017.2 |
| 20260830200342 | 23 | 347 | 14.5 | 29.0 | 0.00 | 0.00 | 0.00 | 46 | 1017.3 |
| 20260830195841 | 23 | 305 | 14.5 | 29.0 | 0.00 | 0.00 | 0.00 | 46 | 1017.2 |
| 20260830195341 | 23 | 20 | 12.9 | 22.5 | 0.00 | 0.00 | 0.00 | 47 | 1017.3 |
| 20260830194834 | 23 | 37 | 11.3 | 22.5 | 0.00 | 0.00 | 0.00 | 47 | 1017.4 |
| 20260830194549 | 22 | 3 | 11.3 | 20.9 | 0.00 | 0.00 | 0.00 | 53 | 1017.5 |
| 20260830193833 | 22 | 60 | 12.9 | 24.1 | 0.00 | 0.00 | 0.00 | 49 | 1017.7 |
| 20260830193333 | 22 | 20 | 12.9 | 24.1 | 0.00 | 0.00 | 0.00 | 49 | 1017.7 |
| 20260830192832 | 22 | 324 | 14.5 | 25.7 | 0.00 | 0.00 | 0.00 | 53 | 1017.8 |